Wendy C — WYB6131 — position and weather

sailwx.info

Track history (hours):
 
Tides and Currents Weather Stations Pressure Air Temp Water Temp Dewpoint Dewpoint Depression Visibility Wind Speed Wind Dir Waves Ship Positions

Wendy C

Owner: Harbor Towing & Fleeting, Inc., Metairie, LA. More information available from US FCC via Universal Licensing System and Coast Guard Vessel Documentation Center.

Last reported at 2014-Oct-24 02:16 UTC. Time now 2014-Oct-24 10:22 UTC.
Position N 29°57' W 090°01'.

Length 19 m; draft 3 m.

Type: Towing. MMSI: 366160126.

Date/timePositionNaut miles runAvg speedWind from/ knotsBaromVisibWave heightAir tempDewpointWater temp
2014-Oct-24 02:16N 29°57' W 090°01'2 2.7
2014-Oct-24 01:23N 29°59' W 090°01'1 1.6
2014-Oct-24 00:32N 29°60' W 090°00'2 2.2
2014-Oct-23 23:28N 29°58' W 090°02'1 1.6
2014-Oct-23 22:33N 29°57' W 090°01'0 0.1
2014-Oct-23 19:20N 29°56' W 090°00'0 0.0
2014-Oct-23 18:29N 29°56' W 090°00'0 0.0
2014-Oct-23 17:31N 29°56' W 090°00'0 0.0
2014-Oct-23 16:33N 29°56' W 090°00'0 0.0
2014-Oct-23 15:34N 29°56' W 090°00'0 0.0
2014-Oct-23 14:33N 29°56' W 090°00'0 0.0
2014-Oct-23 12:23N 29°56' W 090°00'2 0.1
2014-Oct-22 18:29N 29°56' W 089°58'0 0.0
2014-Oct-22 17:23N 29°56' W 089°58'2 0.1
2014-Oct-21 10:29N 29°56' W 090°00'2 0.1
2014-Oct-20 16:17N 29°58' W 090°01'  
Track history (hours):
 
Tides and Currents Weather Stations Pressure Air Temp Water Temp Dewpoint Dewpoint Depression Visibility Wind Speed Wind Dir Waves Ship Positions

Wendy C

Owner: Harbor Towing & Fleeting, Inc., Metairie, LA. More information available from US FCC via Universal Licensing System and Coast Guard Vessel Documentation Center.

Last reported at 2014-Oct-24 02:16 UTC. Time now 2014-Oct-24 10:22 UTC.
Position N 29°57' W 090°01'.

Length 19 m; draft 3 m.

Type: Towing. MMSI: 366160126.

Date/timePositionNaut miles runAvg speedWind from/ knotsBaromVisibWave heightAir tempDewpointWater temp
2014-Oct-24 02:16N 29°57' W 090°01'2 2.7
2014-Oct-24 01:23N 29°59' W 090°01'1 1.6
2014-Oct-24 00:32N 29°60' W 090°00'2 2.2
2014-Oct-23 23:28N 29°58' W 090°02'1 1.6
2014-Oct-23 22:33N 29°57' W 090°01'0 0.1
2014-Oct-23 19:20N 29°56' W 090°00'0 0.0
2014-Oct-23 18:29N 29°56' W 090°00'0 0.0
2014-Oct-23 17:31N 29°56' W 090°00'0 0.0
2014-Oct-23 16:33N 29°56' W 090°00'0 0.0
2014-Oct-23 15:34N 29°56' W 090°00'0 0.0
2014-Oct-23 14:33N 29°56' W 090°00'0 0.0
2014-Oct-23 12:23N 29°56' W 090°00'2 0.1
2014-Oct-22 18:29N 29°56' W 089°58'0 0.0
2014-Oct-22 17:23N 29°56' W 089°58'2 0.1
2014-Oct-21 10:29N 29°56' W 090°00'2 0.1
2014-Oct-20 16:17N 29°58' W 090°01'  

Dump ship's entire track history